Simultaneous Nadir Overpasses (SNOs) Predictions

Prediction of SNOs between LANDSAT-8 and NOAA-19 Satellite Orbit:

Table of predicted SNOs for the next 14.0 days since TLE Epoch: 10/23/2021
Index Date (LANDSAT-8) Time (LANDSAT-8) Lat,Lon (LANDSAT-8) SZA (LANDSAT-8 ) Date (NOAA-19) Time (NOAA-19) Lat,Lon (NOAA-19) SZA (NOAA-19 ) Distance(km) Time Diff (sec)
1 10/24/2021 15:09:32 80.57, -14.38 94.35 10/24/2021 15:09:12 80.57, -14.49 94.33 1.93 20
2 10/24/2021 15:58:59 -80.57, 153.20 85.65 10/24/2021 16:00:07 -80.56, 153.22 85.63 1.26 68
3 10/26/2021 20:43:16 -80.58, 82.31 84.87 10/26/2021 20:42:14 -80.57, 82.35 84.90 1.27 62
4 10/26/2021 21:32:43 80.56,-110.32 95.10 10/26/2021 21:33:17 80.57,-110.26 95.13 1.42 34
5 10/29/2021 03:06:27 -80.57, -13.63 84.13 10/29/2021 03:06:20 -80.57, -13.61 84.13 0.62 7
6 10/31/2021 08:40:10 80.58, 83.09 96.63 10/31/2021 08:39:28 80.57, 83.20 96.61 2.22 42
7 10/31/2021 09:29:38 -80.55,-109.59 83.42 10/31/2021 09:30:26 -80.58,-109.59 83.38 2.47 48
8 11/02/2021 15:03:19 80.59, -12.60 97.36 11/02/2021 15:03:32 80.57, -12.66 97.34 2.72 13
9 11/04/2021 20:37:04 -80.57, 83.75 81.99 11/04/2021 20:36:37 -80.58, 83.83 81.99 1.94 27



Historial Predications of SNOs between LANDSAT-8 and NOAA-19
